RH
92 93 96 98 98 98 98 98 98 98 98 98 95 92 91 91 92 92 91 89 85 81 77 75 75 77 80 84 89 92 96 98 98 98 99 99 98 97 96 96 97 98 98 97 96 96 96 95 94 94 96 97 94 88 81 83 87 91 94 96 97 98 98 96 96 96 98 98 98 98 97 97 96 96 96 96 95 93 90 85 80 74 68 63 58 52
94 94 96 98 98 98 98 98 98 98 98 96 95 94 94 93 93 94 94 92 88 84 80 78 78 80 84 88 92 96 99 100 99 99 98 98 97 96 95 96 97 98 98 97 96 96 96 95 95 95 95 97 97 94 86 81 79 81 84 88 90 92 93 92 92 91 92 93 93 92 90 91 91 91 90 89 87 84 80 75 70 65 60 55 49 43
96 96 97 97 98 99 99 98 98 98 97 96 96 96 96 94 94 94 95 93 91 88 84 82 82 84 88 92 96 98 100 100 99 98 97 96 96 95 95 97 98 99 98 98 97 96 96 95 95 95 95 96 97 96 94 88 83 80 79 81 83 85 87 87 87 87 87 87 86 84 83 84 83 82 80 78 76 73 70 66 62 57 52 47 42 35
98 97 96 96 98 99 99 99 98 98 97 97 98 98 98 96 96 96 96 94 93 91 88 86 86 88 92 96 99 100 100 100 99 98 96 96 94 94 95 98 99 99 99 98 97 96 96 95 95 95 95 95 96 96 95 93 90 87 84 84 83 84 84 84 85 85 85 84 82 80 78 78 76 74 72 70 68 66 63 59 55 50 45 40 34 29
98 97 96 96 98 98 98 98 99 98 98 98 98 99 99 98 98 98 98 97 96 95 93 92 91 92 94 98 100 100 100 100 100 98 97 96 94 94 96 98 100 100 99 98 98 97 96 96 96 96 96 95 95 94 94 94 92 91 90 88 87 86 85 84 84 83 82 82 80 78 75 73 72 70 68 66 64 62 58 53 48 44 39 34 28 22
99 98 97 98 98 98 98 98 99 99 98 98 98 99 99 99 99 99 99 99 99 98 97 96 95 95 96 99 100 100 100 100 100 100 99 98 96 96 97 99 100 100 99 99 98 97 96 96 96 96 96 95 95 94 94 93 92 91 90 88 86 85 84 82 82 80 79 78 76 74 72 70 69 68 67 65 62 58 52 47 42 38 33 27 21 15
99 99 98 98 99 99 98 98 98 98 98 98 98 98 99 99 99 100 100 100 100 100 99 99 98 98 98 100 100 100 100 100 100 100 100 99 98 97 98 99 100 100 100 99 98 98 97 96 96 96 96 95 95 94 94 92 91 90 88 86 84 82 82 80 79 77 76 74 73 72 70 70 69 68 67 64 58 52 46 41 36 32 26 20 14 8
99 99 99 99 99 99 98 98 98 98 98 98 98 97 98 99 99 100 100 100 100 100 100 100 99 99 100 100 100 100 100 100 100 100 100 100 98 97 97 99 99 100 100 99 99 98 97 96 96 96 96 95 94 94 93 92 90 88 86 84 82 81 80 78 77 75 74 73 72 71 71 71 70 68 66 60 53 46 40 35 30 25 19 12 7 4
100 99 99 100 99 99 98 98 98 98 98 98 96 96 97 98 99 100 100 100 100 100 100 100 100 100 100 100 100 100 100 100 100 100 100 100 98 97 97 98 99 100 100 100 99 98 98 97 96 96 95 95 94 93 92 90 88 86 84 83 81 80 78 77 76 74 74 73 73 74 74 72 70 66 60 53 46 40 34 29 23 17 12 7 3 2
99 99 100 99 99 99 99 98 98 98 98 98 97 96 97 98 99 99 100 100 100 100 100 100 100 100 100 100 100 100 100 100 100 100 100 100 99 98 97 98 99 99 100 100 100 99 98 97 96 96 95 94 94 93 92 89 88 86 84 82 81 80 78 77 76 76 76 76 76 75 74 70 65 59 52 44 38 32 27 22 17 11 6 3 2 3
98 99 99 99 99 98 98 98 98 97 97 98 98 98 99 99 99 98 98 99 99 100 100 100 100 100 100 100 100 100 100 100 100 100 100 100 99 98 97 98 98 99 99 100 100 99 98 97 96 95 94 94 93 92 91 89 87 86 84 82 81 80 78 78 77 78 78 77 76 74 69 63 55 48 40 34 29 24 20 15 11 6 3 2 2 4
99 99 99 99 99 99 98 98 98 98 97 98 98 99 99 99 99 98 98 97 98 98 100 100 100 100 100 100 100 100 100 100 100 99 99 99 98 98 96 97 98 98 99 99 100 99 99 97 96 95 94 94 93 92 91 89 88 86 85 83 82 80 79 79 78 78 77 74 70 65 58 50 42 34 28 24 20 16 13 9 6 3 1 1 2 5
99 99 99 99 99 99 99 99 98 98 97 97 98 98 98 98 99 99 98 98 98 98 98 100 100 100 100 100 100 100 100 100 100 99 99 99 98 97 96 96 96 97 98 99 100 99 99 97 96 95 94 94 93 92 91 90 88 87 86 84 82 81 80 79 77 74 70 64 57 49 41 34 27 21 17 14 12 9 7 5 3 2 1 2 3 6
99 99 99 99 99 99 99 98 98 96 96 96 97 98 98 98 98 98 99 99 99 99 98 100 100 100 100 100 99 99 99 100 100 100 100 100 99 98 97 97 97 97 98 99 100 99 99 98 96 96 95 94 94 93 92 90 89 88 86 85 83 81 79 75 70 63 55 47 38 31 24 19 14 11 9 7 6 4 3 2 2 1 1 3 5 9
99 99 100 100 99 99 99 98 96 95 94 96 97 98 99 99 98 98 98 98 99 99 100 100 100 100 100 100 99 99 99 100 100 100 100 100 100 99 99 98 98 98 99 99 100 99 99 98 97 96 96 94 94 93 92 91 90 89 88 86 83 80 74 66 57 46 36 28 21 15 11 8 6 5 4 3 2 2 2 1 1 1 2 4 8 15
99 99 99 99 99 99 99 98 96 96 96 97 98 99 99 98 98 97 97 96 96 97 99 100 100 100 100 100 100 99 99 99 99 100 100 100 100 99 100 99 99 98 99 100 100 100 99 98 98 97 96 95 94 93 93 92 90 90 88 86 82 75 65 52 40 28 19 13 8 5 3 2 2 2 1 1 1 1 1 1 1 2 4 10 20 35
98 97 97 98 98 99 99 98 98 97 97 98 98 97 96 96 96 96 96 95 95 97 100 99 100 100 100 99 98 98 98 99 99 99 100 100 100 99 100 100 100 99 100 100 100 100 99 99 98 98 97 96 94 94 93 92 92 90 89 85 78 68 54 38 25 14 7 4 2 1 1 1 1 1 1 1 1 1 1 1 2 3 7 22 44 68
95 95 94 95 96 98 99 99 99 98 98 98 96 94 93 96 96 96 94 93 93 94 94 95 96 97 98 96 92 90 90 96 98 98 100 100 100 99 99 100 100 100 100 100 100 100 99 99 99 98 97 96 95 94 93 93 92 92 90 84 74 60 42 26 14 6 2 1 1 1 1 1 1 1 1 1 1 1 1 1 2 5 12 35 64 88
94 93 94 94 96 97 98 98 98 98 97 94 90 88 90 94 96 96 94 91 89 89 89 91 90 89 89 89 85 81 82 90 95 97 100 100 100 100 99 100 100 100 100 100 100 100 99 99 99 98 98 96 96 94 94 94 93 92 90 82 69 52 32 18 8 3 1 1 1 1 1 1 1 1 1 1 1 1 1 1 2 6 15 40 68 90
94 94 93 94 96 98 99 98 98 96 93 87 80 77 79 84 89 91 90 88 88 88 90 90 90 89 89 86 83 81 82 88 93 97 99 100 100 100 99 100 100 100 100 100 100 100 100 99 99 98 98 97 96 95 94 94 94 93 90 80 64 45 25 12 5 2 1 2 2 2 2 1 1 1 1 1 1 1 1 1 2 6 15 39 66 87
97 96 96 96 98 98 99 98 96 92 86 78 70 66 68 74 79 82 82 84 86 90 92 95 94 92 92 89 88 87 86 90 94 96 97 99 100 100 100 100 100 100 100 100 100 100 100 99 99 99 98 98 96 96 95 94 94 94 91 78 60 40 20 9 3 2 2 2 2 2 2 2 1 1 1 1 1 1 1 1 2 5 13 34 57 76
99 99 98 98 98 98 98 97 93 86 79 72 66 63 62 66 69 73 75 79 84 90 95 98 97 95 93 93 92 91 91 94 95 95 96 99 100 100 100 100 100 100 100 100 100 100 100 100 100 99 99 98 97 96 95 95 95 94 90 76 56 35 16 7 3 2 2 3 2 2 2 2 1 1 1 1 1 1 1 1 2 3 8 24 44 61
99 98 98 98 98 98 98 96 90 84 77 72 68 66 64 65 66 68 72 76 80 85 89 92 93 94 95 96 96 97 98 99 99 98 98 99 100 99 99 100 100 100 100 100 100 100 100 100 100 99 99 98 97 96 96 95 95 94 90 73 52 31 13 6 3 2 3 3 2 2 2 2 1 1 1 1 1 1 1 1 1 2 5 15 28 42
99 98 98 98 97 97 95 91 86 82 78 77 76 76 75 76 77 79 80 82 84 87 89 92 94 96 98 99 100 100 100 100 100 100 100 100 100 99 99 99 100 100 100 100 100 100 100 100 100 99 99 98 98 97 96 96 96 94 89 70 48 27 11 5 3 3 3 3 2 2 2 2 2 1 1 1 1 1 1 1 1 2 3 9 17 25
98 98 96 95 94 91 88 83 80 77 77 80 82 84 85 87 90 92 94 94 94 94 96 99 100 100 100 100 100 100 100 100 100 100 100 100 100 100 100 100 100 100 100 100 100 100 100 100 100 99 99 98 98 97 96 96 96 94 87 66 44 24 10 5 3 3 3 3 2 2 2 2 2 2 1 2 2 2 2 2 2 2 3 6 11 16
98 96 93 90 88 85 82 78 76 74 75 80 83 86 86 88 90 92 93 93 93 95 98 99 100 100 100 100 100 100 100 100 100 100 100 100 100 100 100 100 100 100 100 100 100 100 100 100 100 100 99 98 98 97 96 96 96 93 84 62 40 20 8 5 3 3 3 3 3 2 2 2 2 2 2 2 2 2 3 3 4 4 5 7 9 13
98 95 92 88 85 82 80 77 74 73 74 78 80 82 82 83 86 88 88 86 88 92 98 99 100 100 100 100 100 100 100 100 100 100 100 100 100 100 100 100 100 100 100 100 100 100 100 100 100 100 99 98 98 97 97 96 96 92 82 58 36 18 7 5 3 3 3 3 3 3 3 3 3 3 3 3 3 3 4 5 6 6 7 8 10 12
98 95 91 87 84 82 79 76 74 73 74 76 77 77 76 77 79 80 79 78 83 90 97 98 99 100 100 100 100 100 100 100 100 100 100 100 100 100 100 100 100 100 100 100 100 100 100 100 100 100 99 98 98 97 97 97 96 91 78 54 32 16 7 4 3 3 3 3 3 4 4 4 4 4 5 5 5 5 6 7 7 8 9 10 11 12
97 95 91 88 84 81 77 75 74 74 75 76 76 74 72 72 73 73 72 74 81 89 94 96 97 99 99 100 100 100 100 100 100 100 100 100 100 100 99 100 100 100 100 100 100 100 100 100 99 99 99 98 98 97 97 97 95 89 74 50 29 14 6 4 4 4 4 4 4 4 5 5 6 6 7 7 7 8 8 9 9 10 11 11 11 12
96 94 90 86 82 77 74 73 74 76 78 78 77 75 72 72 73 74 74 78 83 88 91 95 98 99 100 100 100 100 100 100 100 100 100 100 100 99 99 100 100 100 100 100 100 100 99 99 98 98 98 98 97 97 97 96 94 87 69 45 26 12 5 4 4 4 4 5 5 5 6 7 8 8 9 9 10 10 10 11 11 12 12 12 12 12
96 92 88 82 77 73 71 72 75 78 81 81 80 78 75 76 78 80 82 85 88 91 93 96 98 99 99 100 100 100 100 99 99 100 100 100 99 98 98 99 99 99 99 100 100 99 99 98 98 98 98 97 97 97 97 96 93 83 64 40 22 10 5 4 4 4 5 5 6 7 7 8 9 10 11 11 12 12 12 12 13 13 13 13 13 13
95 90 83 77 73 71 71 73 76 79 81 81 80 79 78 80 82 84 85 88 92 95 97 98 99 99 99 99 99 99 99 97 97 98 99 100 99 98 98 98 99 99 99 100 100 99 99 98 98 97 97 97 97 97 97 96 91 78 58 35 19 9 4 4 4 5 5 6 7 8 9 10 11 12 12 13 13 14 14 14 14 14 15 14 14 14
93 87 79 74 73 73 74 75 76 77 77 77 77 78 80 82 84 86 86 89 93 97 98 99 99 99 99 99 99 98 97 96 97 98 99 99 98 98 98 99 99 99 99 100 100 100 99 99 98 98 97 97 97 97 97 96 88 73 51 31 16 7 4 4 4 5 6 7 8 10 10 11 12 13 14 14 14 15 15 15 15 15 15 15 15 15
90 83 76 74 74 76 77 77 77 76 76 74 74 76 79 83 85 86 86 90 95 98 99 99 99 98 98 99 99 99 97 97 98 99 99 99 98 97 98 98 99 99 100 100 100 100 100 99 99 98 98 98 98 98 97 94 84 67 44 26 14 6 4 4 4 5 6 8 9 10 12 12 13 14 15 15 15 16 16 16 16 16 16 16 16 16
86 80 74 74 74 76 78 77 77 76 75 74 74 76 79 82 84 86 88 92 96 99 100 100 99 98 98 99 99 98 97 97 98 100 100 99 98 98 98 98 98 98 99 100 100 99 99 98 98 99 99 99 98 98 97 92 80 61 40 23 12 6 4 4 4 5 6 8 9 10 12 13 14 15 15 16 16 16 16 16 16 17 17 17 17 17
83 78 75 74 74 74 75 74 74 74 74 74 74 76 78 81 84 87 91 95 98 99 100 100 100 100 100 100 99 98 97 98 99 100 100 100 99 99 99 98 98 98 98 99 99 99 98 98 98 99 99 99 99 98 97 89 75 56 36 20 11 6 5 5 5 6 7 9 10 11 13 14 15 16 16 16 17 17 17 17 17 17 17 17 17 17
80 77 76 74 74 73 72 71 71 71 72 74 75 76 79 82 86 90 94 97 99 100 100 100 100 100 100 100 100 100 99 99 99 100 100 100 100 100 99 99 98 98 99 98 98 99 99 99 99 99 99 99 98 97 94 83 68 50 32 18 10 6 5 6 7 8 10 10 12 13 15 16 16 17 17 17 17 17 17 18 18 18 18 18 18 18
77 75 75 74 73 72 71 70 70 71 73 74 76 78 81 84 88 92 97 98 99 100 100 100 100 100 100 100 100 100 100 100 100 99 99 100 100 100 100 100 100 99 100 99 99 99 98 99 99 99 99 98 98 94 89 76 60 43 27 16 9 5 5 6 8 10 11 13 14 15 17 17 18 18 18 18 18 18 18 18 18 18 18 18 18 18
75 74 73 73 72 71 70 70 71 73 75 76 78 81 84 88 92 95 98 99 100 100 100 100 100 100 100 100 100 100 100 99 99 98 98 99 99 99 99 99 99 100 100 99 99 99 99 98 98 98 98 98 95 90 82 69 54 38 23 13 8 5 6 7 8 10 13 15 16 17 18 18 19 19 18 18 18 18 18 18 18 18 18 18 19 19
74 73 72 72 72 71 71 72 74 76 78 80 82 84 88 92 95 98 99 99 100 100 99 99 100 100 100 100 100 100 100 99 98 97 97 97 98 98 98 98 98 99 100 99 99 99 99 99 99 98 98 96 90 82 71 60 46 34 21 11 6 5 5 7 8 10 13 15 17 18 18 19 19 19 19 18 18 18 18 18 18 19 19 19 19 20
72 72 73 73 74 74 76 76 78 79 81 84 86 88 91 94 96 98 99 99 99 99 99 99 99 100 100 100 100 99 99 99 98 97 96 96 97 97 97 96 97 98 99 99 99 99 99 99 99 99 99 97 89 77 62 49 38 28 18 10 5 3 4 6 8 10 13 15 17 18 19 19 19 19 19 19 19 19 19 19 19 19 20 20 20 20
72 72 73 74 75 76 78 79 81 83 85 87 89 90 92 94 97 98 98 99 99 98 98 98 99 99 99 99 99 99 98 98 98 97 96 96 96 96 96 96 97 98 99 99 98 98 98 98 99 99 99 97 90 76 59 44 32 23 15 9 5 4 5 7 8 10 12 14 17 18 19 19 19 19 19 19 19 19 19 19 19 20 20 20 20 20
72 72 73 74 76 78 80 82 84 86 88 89 90 92 93 96 97 98 98 98 98 98 98 98 98 98 98 98 98 98 98 98 98 98 98 98 97 97 97 97 97 98 98 98 98 98 98 98 98 98 98 96 87 74 57 41 28 19 12 8 6 6 7 7 8 9 11 13 16 18 18 19 19 19 19 19 19 19 19 19 19 19 19 20 20 20
73 73 73 76 78 81 84 86 87 88 88 89 90 92 94 96 98 98 98 98 98 98 98 98 98 98 98 98 98 98 97 97 97 98 98 98 98 97 97 97 97 98 98 98 98 97 98 98 97 97 96 92 82 68 52 38 26 16 10 7 6 5 6 6 7 9 11 13 15 17 18 19 19 19 19 19 19 19 19 19 19 19 19 19 20 20
75 74 75 78 82 84 87 87 88 88 89 90 90 92 94 96 97 97 97 97 97 98 98 98 98 98 99 98 98 98 97 97 97 97 97 97 97 96 96 96 96 97 98 97 97 97 97 96 96 94 92 84 73 58 43 31 22 14 9 7 6 6 7 9 9 10 11 13 15 16 18 18 19 19 19 18 18 18 18 18 19 19 19 20 20 20
79 78 79 82 84 87 88 88 88 89 90 91 92 93 94 96 96 96 96 95 95 96 96 96 97 97 98 97 98 98 98 97 97 97 97 96 95 94 92 92 93 94 95 96 96 96 96 95 94 91 87 76 64 49 33 23 17 13 9 8 7 7 9 11 13 13 12 13 15 16 17 18 19 18 18 18 18 18 18 18 18 19 19 20 20 20
84 83 84 86 87 88 89 89 90 90 91 92 92 94 94 95 95 94 94 92 91 90 91 92 93 93 92 93 94 96 96 96 96 96 96 95 92 88 84 84 85 87 90 91 93 94 95 94 93 89 82 70 56 42 26 17 12 10 9 8 8 8 9 11 13 14 14 15 16 17 18 18 18 18 17 17 17 18 18 18 18 19 19 20 20 20
86 86 87 88 89 90 90 90 90 91 91 92 93 94 94 94 93 92 90 88 86 84 83 84 84 84 83 85 88 90 92 92 92 92 92 91 86 81 74 72 74 77 81 84 86 89 90 90 90 86 80 66 52 37 22 13 10 8 9 9 9 9 9 10 12 14 15 16 17 17 18 18 17 17 16 17 17 17 17 18 18 18 19 19 20 20
89 89 90 90 91 91 91 91 91 91 91 92 92 93 94 94 92 90 88 84 81 78 76 74 72 70 69 73 78 82 86 88 89 89 89 86 81 74 66 62 63 67 73 77 82 84 84 84 82 79 74 61 48 35 22 13 9 8 9 10 10 10 9 10 12 14 15 15 16 17 17 17 17 16 17 17 17 17 17 17 18 18 18 18 19 19
92 92 92 92 92 92 91 91 91 91 91 92 92 93 94 92 90 88 84 80 76 72 67 63 59 56 54 57 64 71 78 82 85 86 86 84 78 70 60 56 55 57 62 68 74 77 78 77 74 68 59 49 40 31 21 14 10 9 10 10 11 11 11 11 12 14 14 15 15 16 16 16 16 17 18 18 17 17 17 17 17 17 17 18 18 18
95 94 94 94 94 93 92 92 92 92 92 92 92 93 92 91 89 86 81 76 71 66 60 55 51 48 44 46 51 58 64 71 77 81 82 80 76 68 58 51 48 48 52 58 63 66 66 66 63 57 49 39 30 23 17 13 10 10 10 10 11 11 12 12 13 14 14 15 15 15 15 15 16 16 17 17 16 16 16 16 16 16 17 17 17 18
Wind_Speed
39 40 41 42 41 39 37 37 39 39 37 33 31 30 30 28 28 28 28 28 28 25 22 20 19 19 19 18 18 18 17 18 17 16 15 16 17 17 17 16 15 14 15 16 17 17 18 17 17 17 18 19 19 20 20 21 22 22 22 21 20 20 20 21 21 21 21 22 22 23 23 24 24 24 24 24 24 24 24 22 21 19 18 17 16 16
39 40 40 41 40 39 38 39 39 38 36 33 32 31 30 29 29 30 30 29 27 24 21 20 20 20 19 18 18 18 18 17 17 17 18 18 18 18 16 15 14 13 14 15 16 17 17 17 17 17 17 18 19 19 20 20 20 21 21 21 21 22 22 23 24 24 25 25 26 27 27 27 26 26 25 25 24 23 21 20 18 16 15 15 15 14
41 40 40 40 40 41 42 42 41 39 35 33 32 31 29 29 29 30 30 28 26 23 21 21 21 20 18 17 17 18 18 18 18 19 19 19 18 17 15 13 13 13 14 15 16 16 16 16 16 16 17 18 19 19 19 19 19 20 20 21 22 22 23 24 24 25 26 26 27 27 26 25 24 22 21 20 19 18 17 16 15 14 14 13 13 13
42 40 40 39 41 42 44 44 42 38 35 33 31 30 29 29 29 29 28 27 24 22 22 22 21 20 17 17 18 19 19 19 19 19 18 18 16 15 14 13 12 13 13 14 15 16 16 16 16 16 17 18 19 19 19 19 19 20 20 21 21 22 23 24 24 24 25 25 25 24 22 20 18 17 16 16 15 14 13 13 13 13 13 13 12 11
42 40 39 39 41 43 45 44 41 37 34 32 30 29 28 28 28 28 27 25 23 22 22 22 21 19 17 17 19 20 20 20 20 19 18 16 15 14 13 13 13 13 13 14 15 15 16 16 16 16 17 18 18 19 19 19 19 20 20 20 21 21 22 23 23 23 23 22 21 20 18 16 15 14 14 13 13 12 12 12 12 12 12 12 11 11
41 39 39 40 43 45 45 42 39 37 35 33 31 29 28 27 27 27 26 25 23 23 22 22 21 19 17 18 19 20 21 21 20 19 17 16 14 14 14 14 13 13 14 14 15 15 16 16 16 17 17 18 18 19 19 19 19 19 19 20 20 20 21 21 21 20 20 19 18 17 16 15 14 14 13 13 12 12 12 11 12 12 12 11 11 10
39 39 39 41 43 45 44 41 39 37 35 33 30 28 27 27 27 27 26 25 24 23 23 22 20 18 17 18 20 21 22 21 21 20 18 17 16 15 15 15 15 14 14 14 15 15 16 16 17 17 17 17 18 18 18 18 18 18 18 18 19 19 19 19 19 18 17 17 16 16 15 14 14 14 13 13 13 12 12 11 11 11 11 10 10 10
37 39 40 42 44 44 43 41 40 37 34 31 28 27 26 27 27 27 26 25 24 23 23 22 20 19 18 19 21 22 23 23 22 21 20 18 18 17 17 16 15 15 15 14 15 15 16 16 17 17 17 17 17 17 17 17 17 17 17 17 17 17 17 17 17 16 16 16 15 15 15 15 14 14 14 14 13 12 11 11 11 11 10 10 9 9
38 39 40 42 43 43 41 40 39 36 32 27 25 25 26 27 28 28 28 27 25 24 23 22 21 20 20 21 23 24 24 24 23 22 21 20 19 18 18 17 16 15 15 15 15 15 16 16 17 17 17 16 16 16 16 16 16 16 16 16 16 16 16 16 16 15 15 15 15 15 15 15 15 15 15 14 13 12 11 10 10 10 10 10 10 10
39 40 40 41 41 40 39 38 36 33 28 24 22 23 25 27 28 28 28 27 26 25 24 23 22 22 22 23 25 25 25 24 24 23 22 22 21 20 19 18 17 16 15 15 15 15 16 16 16 16 16 16 16 15 15 15 15 15 15 15 15 15 15 15 15 15 15 15 15 16 16 16 16 16 15 14 13 11 10 10 10 10 10 10 11 11
38 40 40 40 39 37 35 33 30 27 24 22 23 24 26 27 28 28 28 28 27 26 26 25 24 24 24 25 26 26 26 25 25 24 24 23 22 21 20 19 18 17 16 15 15 15 15 16 16 16 16 16 15 15 15 14 14 14 14 14 14 15 15 15 15 15 15 16 16 16 17 17 16 16 15 13 12 11 11 11 11 11 11 11 11 11
38 39 39 38 36 34 31 28 25 23 23 24 25 27 28 28 28 28 28 28 28 28 28 27 26 26 25 26 26 27 27 27 26 26 25 25 24 23 22 21 19 17 16 15 15 15 15 15 15 15 15 15 15 15 14 14 14 14 14 14 14 14 15 15 15 15 16 16 17 17 17 17 17 16 14 13 11 11 11 11 11 11 11 12 12 11
36 37 37 35 33 31 29 27 25 24 25 27 28 29 29 29 28 27 27 27 28 29 29 29 28 27 26 26 26 27 27 27 27 27 26 26 26 25 24 22 19 17 16 15 14 14 15 15 15 15 15 14 14 14 14 14 14 14 14 14 14 14 15 15 15 15 16 17 17 17 17 17 16 15 14 12 11 11 12 12 12 11 12 12 12 11
33 34 34 33 31 30 29 28 27 27 28 29 29 29 28 28 27 27 27 27 28 28 28 28 28 28 28 27 27 27 27 27 27 27 27 27 27 26 24 23 20 18 15 14 14 14 14 14 14 14 14 14 14 14 14 14 14 14 14 14 14 14 15 15 15 16 16 17 17 17 17 16 15 14 13 12 11 12 12 12 12 12 12 12 12 12
31 31 31 30 30 30 30 30 29 29 29 29 29 28 27 27 27 27 28 28 28 27 27 27 28 28 29 29 28 28 27 27 27 27 28 28 27 26 25 24 22 19 17 15 14 13 14 14 14 14 14 14 14 14 14 14 14 14 14 14 14 14 15 15 15 16 16 16 17 17 16 15 14 13 12 12 12 12 13 13 13 13 13 13 13 13
29 29 28 28 29 30 30 30 29 29 29 29 28 27 27 27 28 29 29 29 28 28 28 28 28 29 30 30 29 29 29 28 28 28 29 29 28 27 26 25 23 21 19 17 15 14 14 14 14 14 14 14 14 14 14 14 14 14 14 14 14 14 14 14 15 15 15 16 16 16 15 14 13 13 12 12 13 13 13 13 14 14 14 13 13 12
29 28 28 28 29 29 29 28 27 27 28 28 27 27 27 29 30 30 30 29 29 28 29 29 31 32 32 31 31 31 31 30 30 30 30 30 30 28 27 26 24 23 20 18 17 16 15 15 15 15 15 15 14 14 14 14 14 14 14 14 14 14 14 14 14 14 15 15 15 15 14 14 13 12 12 13 13 14 14 14 14 15 15 15 14 13
27 27 27 27 28 27 26 25 25 26 27 26 26 26 28 29 30 30 30 30 29 29 30 30 32 33 34 35 34 33 33 33 32 32 32 32 31 30 28 27 25 23 21 20 18 18 17 16 16 16 16 15 15 15 15 15 14 14 14 14 14 13 13 13 13 14 14 14 14 14 14 13 13 13 13 13 14 14 15 15 15 16 17 17 17 17
25 25 24 25 26 26 25 24 24 25 24 24 24 25 28 30 31 31 30 30 30 30 31 32 32 33 34 35 35 34 33 33 33 33 33 34 33 31 29 28 26 24 23 21 20 19 19 18 18 17 17 16 16 16 15 15 14 14 14 14 13 13 13 13 13 13 14 14 14 14 14 13 13 13 13 14 15 15 15 15 16 17 18 19 20 20
25 25 25 26 27 27 27 26 25 24 23 22 22 24 28 30 31 31 31 31 31 31 31 32 32 33 33 34 34 33 33 33 33 34 34 34 34 32 30 29 27 26 24 22 21 21 20 19 19 18 18 17 17 16 16 15 15 14 14 13 13 13 13 13 13 13 14 14 14 14 14 13 13 13 14 15 15 15 16 16 17 18 20 21 21 22
26 27 28 29 29 29 28 25 24 24 24 23 24 26 28 29 30 31 31 31 32 32 33 33 33 33 33 33 33 33 33 33 33 33 34 34 34 33 31 29 28 26 25 23 22 22 21 20 20 19 18 18 17 17 16 15 15 14 14 13 13 13 13 13 13 13 14 14 14 14 14 13 14 14 14 15 16 16 16 16 17 19 20 22 23 23
27 28 28 28 28 27 24 22 22 24 25 26 27 28 28 29 29 30 30 31 32 33 33 33 33 32 32 32 32 31 31 31 32 32 32 33 33 33 31 29 28 26 25 24 23 22 21 21 20 20 19 18 17 17 16 15 15 14 14 13 13 13 13 13 13 14 14 14 14 14 14 14 14 14 15 15 16 16 16 17 18 19 21 22 23 24
23 23 23 23 22 21 19 19 21 24 26 27 27 27 27 27 27 27 28 29 30 31 31 31 31 31 31 31 31 30 31 31 31 31 31 33 34 33 31 29 28 26 25 24 23 22 21 21 21 20 19 19 18 17 16 16 15 14 14 14 13 13 13 13 14 14 14 14 14 14 14 14 14 15 15 16 16 17 17 17 18 19 21 22 23 24
19 18 17 17 17 17 18 19 21 24 25 25 25 24 24 24 23 23 24 24 25 26 27 28 29 30 31 31 31 31 32 31 31 32 32 33 33 33 31 29 28 26 25 24 23 22 22 21 21 20 20 19 18 17 17 16 15 14 14 14 14 13 14 14 14 14 15 15 15 14 14 14 14 15 15 16 16 17 17 17 18 19 20 22 22 23
18 17 16 16 16 17 18 20 22 24 24 23 22 22 22 22 21 21 21 22 23 24 26 27 29 31 32 32 33 33 33 32 32 33 33 34 34 33 32 30 28 27 25 24 23 23 22 22 21 21 20 20 19 18 17 16 15 15 14 14 14 14 14 14 14 15 15 15 15 15 15 14 15 15 16 16 17 17 17 18 18 19 20 21 22 22
19 18 17 17 18 18 20 21 23 24 23 22 21 21 21 22 22 22 23 24 25 26 27 28 30 32 32 33 34 34 34 33 33 33 33 34 34 34 32 30 29 27 26 25 24 23 23 22 22 21 21 20 19 18 17 16 16 15 15 14 14 14 14 15 15 15 15 15 15 15 15 15 15 16 16 17 17 17 18 18 18 19 19 20 21 21
20 19 19 20 20 21 22 23 24 24 23 22 21 22 22 23 23 24 26 27 27 27 28 29 31 32 33 34 35 35 34 33 33 33 33 34 34 33 32 31 29 28 26 26 25 24 23 23 22 22 21 21 20 19 18 17 16 16 15 15 15 15 15 15 16 16 16 16 16 15 15 15 16 16 17 17 17 18 18 18 18 19 19 19 19 19
20 20 21 22 23 24 25 26 26 25 24 23 23 23 24 24 25 26 28 28 27 27 28 29 31 33 35 36 36 34 33 33 33 33 33 32 33 33 32 31 29 28 27 27 26 25 24 24 23 23 22 21 20 19 18 18 17 16 16 16 15 16 16 16 16 16 16 16 16 16 16 16 16 17 17 17 18 18 18 18 18 18 18 18 18 17
20 21 23 24 25 26 27 27 27 25 24 24 24 25 26 26 26 26 27 27 26 26 27 28 30 32 34 34 34 34 33 33 33 32 32 31 32 33 32 31 30 29 28 27 27 26 26 25 25 24 23 22 21 20 19 18 18 17 17 16 16 16 16 17 17 17 17 17 17 17 17 17 17 17 17 18 18 18 18 18 18 18 18 17 17 16
20 22 24 25 26 27 27 27 26 24 24 24 25 25 26 26 25 24 24 24 24 25 26 28 29 31 32 32 33 34 35 35 34 32 31 31 32 33 32 31 31 30 29 28 28 28 27 27 26 25 24 23 22 21 20 19 19 18 17 17 17 17 17 17 18 18 18 18 18 17 17 17 17 18 18 18 18 18 18 18 18 18 17 17 17 16
22 23 25 26 27 27 26 25 24 24 23 24 25 25 26 25 24 23 22 22 23 23 24 26 28 29 30 31 33 35 36 35 33 32 31 32 33 33 33 32 31 30 29 29 29 29 29 28 27 26 25 24 23 21 21 20 19 18 18 18 18 18 18 18 18 19 19 18 18 18 18 18 18 18 18 18 18 18 18 18 18 18 17 17 17 17
23 25 26 26 26 26 25 24 23 23 24 24 25 25 25 25 24 23 22 21 21 21 22 24 25 26 27 28 31 33 34 32 31 31 31 32 33 33 32 31 30 30 29 28 29 29 29 28 27 26 25 24 23 22 21 20 20 19 18 18 18 18 19 19 19 19 19 19 19 19 19 19 19 19 19 18 18 18 18 18 18 18 18 17 17 17
25 25 26 26 25 25 24 24 24 24 24 25 25 26 25 25 24 23 22 20 20 20 21 22 23 24 24 25 26 27 28 27 27 28 30 32 33 33 32 31 30 29 28 28 28 28 28 27 27 26 25 24 23 22 22 21 20 19 19 18 19 19 20 20 20 21 21 20 20 20 20 19 19 19 19 19 18 18 18 18 18 18 18 17 17 17
26 25 25 25 25 24 24 24 24 24 25 26 26 26 25 24 23 22 21 20 19 19 20 21 22 22 22 23 24 24 24 23 24 26 28 31 32 33 32 31 30 29 29 28 28 28 28 27 26 25 24 24 23 22 22 21 21 20 19 19 19 20 20 21 21 22 22 21 21 21 21 21 20 20 20 19 19 19 19 18 18 18 18 17 17 17
26 26 26 25 25 25 25 25 25 25 26 26 27 26 25 24 22 21 20 19 19 19 20 20 21 20 21 21 22 23 22 21 22 24 27 29 31 31 31 30 30 29 29 29 29 29 28 27 26 25 24 23 23 23 23 22 21 20 20 20 20 21 21 22 22 22 22 22 22 22 21 21 21 21 20 20 19 19 19 19 18 18 18 17 17 17
27 27 27 27 26 26 26 26 26 26 27 27 27 26 25 24 22 21 20 19 19 20 20 20 20 20 20 20 20 20 20 19 20 22 25 27 28 29 30 30 29 29 29 29 29 28 28 27 26 25 24 24 24 24 24 23 22 21 21 21 21 22 22 22 22 22 22 22 22 22 22 21 21 21 20 20 20 20 19 19 19 18 18 18 17 17
28 28 28 28 28 28 28 28 28 28 28 27 27 26 24 23 22 21 21 20 20 21 21 21 21 20 20 20 19 19 18 17 18 20 22 24 26 27 28 28 28 27 28 28 28 28 27 27 26 25 24 24 24 24 24 23 23 22 22 22 22 23 23 23 22 22 22 22 22 22 22 21 21 21 21 20 20 20 20 20 19 19 19 18 18 17
30 30 29 29 29 29 29 29 29 29 28 27 26 25 24 23 22 22 21 21 21 21 22 21 21 21 20 20 20 19 18 17 17 18 20 21 23 25 26 27 26 26 26 26 26 26 26 27 27 27 26 25 24 24 23 23 23 23 23 23 23 23 24 24 24 24 23 23 23 22 22 22 22 22 21 21 21 21 20 20 20 20 19 19 18 18
31 31 30 30 30 30 30 30 29 29 28 27 25 24 23 22 22 22 22 22 22 22 22 22 22 21 21 20 20 20 20 19 18 18 19 21 22 23 24 25 25 25 25 25 25 25 25 26 26 26 26 25 24 23 23 22 22 23 23 23 24 24 25 25 25 25 25 24 24 23 23 23 23 22 22 22 21 21 20 20 20 20 20 19 19 18
32 32 31 31 30 30 30 30 29 28 27 25 24 23 23 23 23 23 23 23 23 23 23 23 22 22 21 21 21 21 21 21 20 20 21 21 22 23 24 24 24 24 24 24 24 24 24 24 24 23 23 23 22 22 22 22 22 22 23 24 25 26 26 26 26 26 26 26 25 24 24 24 23 23 22 22 21 21 20 20 20 20 20 19 19 19
33 32 32 31 31 30 30 29 28 27 26 25 24 24 24 24 24 25 25 25 25 24 24 24 23 22 22 21 21 21 22 22 22 22 22 23 23 24 24 24 24 24 24 24 24 24 24 23 22 22 21 21 20 20 20 21 21 22 23 24 25 25 26 26 26 27 27 26 26 25 25 24 23 23 22 22 22 21 21 21 21 20 20 20 19 19
34 33 33 32 32 31 30 29 28 26 25 25 25 25 25 25 25 25 26 26 26 25 25 25 24 23 22 22 22 22 22 22 23 23 23 23 24 24 25 24 24 24 24 24 24 24 24 23 22 21 20 20 19 19 19 20 20 22 23 23 24 24 25 26 27 27 27 27 26 26 25 24 24 23 22 22 22 22 22 21 21 21 21 20 20 19
34 34 33 33 32 31 30 29 28 27 26 26 26 26 26 26 26 26 26 26 26 26 25 25 24 24 23 23 22 22 22 23 23 23 23 23 24 24 24 24 24 24 24 24 24 24 24 23 22 21 20 20 20 19 19 19 20 22 23 23 23 24 26 27 27 27 27 27 27 26 25 25 24 23 23 23 23 23 22 22 22 21 21 20 20 19
35 34 34 33 32 31 30 29 28 28 27 27 27 27 27 26 26 26 26 26 26 26 25 25 24 24 24 24 23 23 23 23 23 24 24 23 23 23 23 23 23 23 24 24 25 25 25 24 23 22 21 21 21 21 20 20 21 22 23 23 24 25 26 26 26 27 27 27 26 26 25 25 24 24 23 23 23 23 23 22 22 21 21 20 19 19
36 35 34 33 32 31 30 30 29 29 29 28 28 28 27 27 27 27 26 26 26 26 26 25 25 25 25 25 25 24 24 23 23 24 24 24 24 23 23 23 22 23 23 24 24 24 24 24 24 24 23 22 22 22 22 21 21 22 23 23 24 24 24 23 24 25 25 26 26 25 25 24 24 24 24 23 23 23 23 22 21 21 20 20 19 19
36 35 34 33 32 32 31 31 30 30 30 29 29 29 28 28 28 27 27 27 26 26 26 25 25 25 26 26 25 25 25 24 24 24 24 24 24 24 23 23 23 23 24 24 24 24 23 23 23 23 23 23 23 23 23 23 23 23 23 24 24 24 24 24 24 24 24 24 24 24 24 24 24 24 24 24 23 23 22 22 21 20 20 19 19 19
36 35 34 33 33 32 32 32 31 31 31 30 30 29 29 29 28 28 28 27 27 26 26 26 26 26 26 26 26 26 26 26 25 25 25 25 24 24 24 24 24 24 24 25 24 24 23 22 22 22 23 23 24 24 24 24 24 24 24 24 25 25 25 25 25 25 25 24 24 24 24 24 24 24 24 23 23 23 22 21 21 20 20 19 19 19
35 35 34 34 34 33 33 33 33 32 32 32 31 30 30 30 29 29 28 28 28 27 27 27 27 27 26 26 26 26 26 26 26 26 26 26 25 25 24 24 24 25 25 25 25 25 25 24 23 23 23 23 24 24 24 24 24 25 25 25 25 25 26 25 25 25 25 25 25 25 25 25 25 24 24 23 23 22 22 21 21 20 20 20 19 19
35 35 34 34 35 35 35 34 34 33 33 33 32 31 31 30 30 29 29 29 29 28 28 28 28 28 27 26 26 26 26 26 26 26 26 26 26 26 25 25 25 25 26 26 26 26 26 26 26 26 25 25 24 23 23 24 24 25 25 25 25 25 25 25 25 25 25 26 26 26 26 25 24 23 23 23 23 22 21 21 20 20 20 20 19 19
36 36 35 35 36 36 36 35 35 34 34 33 33 32 31 31 30 30 30 29 29 29 29 29 28 28 27 27 27 27 27 27 27 26 26 26 26 26 26 26 26 26 26 26 26 26 26 26 27 27 27 26 25 24 24 24 24 25 25 26 26 25 25 25 25 25 25 26 26 26 26 26 25 24 23 23 23 22 21 21 21 20 20 20 19 19
37 37 36 36 36 36 36 36 35 35 34 34 33 32 32 31 31 31 30 30 30 30 29 29 28 28 27 27 27 27 27 27 27 27 27 27 26 26 26 26 27 27 27 27 28 28 27 27 27 27 27 27 27 26 25 25 25 26 26 26 26 26 25 25 25 25 25 25 25 26 26 26 25 25 24 24 23 23 22 22 21 20 20 20 19 19
Wind_Direction
231 232 234 234 232 228 224 224 223 222 220 213 205 198 197 199 203 208 213 216 219 222 224 228 232 236 237 233 227 225 229 235 240 241 237 235 237 241 245 246 244 241 241 242 244 246 247 247 245 242 237 232 226 222 220 221 222 224 225 228 233 239 244 246 246 246 247 248 250 251 253 255 257 261 265 270 275 279 283 287 289 291 292 292 293 293
228 229 231 233 232 229 228 227 226 222 216 208 202 197 196 198 202 206 211 214 217 221 225 229 233 236 235 230 225 224 227 232 235 237 237 237 240 243 245 243 240 238 239 242 244 245 246 246 244 241 236 231 226 223 221 221 223 225 228 231 235 240 245 249 252 254 254 254 254 255 257 259 262 265 268 271 274 277 280 283 285 286 287 287 287 287
226 225 228 231 233 232 229 228 225 219 210 203 199 196 196 199 203 206 210 212 215 220 225 231 234 235 233 228 224 223 225 229 233 236 238 241 243 243 240 236 234 236 239 241 243 243 243 243 241 238 234 229 226 223 222 222 224 225 228 231 235 239 243 247 251 253 254 255 257 259 262 264 266 267 269 270 272 275 277 280 281 281 281 281 281 280
224 223 227 230 232 231 228 225 219 212 204 199 196 196 197 200 204 207 210 212 216 221 227 232 234 234 230 224 221 222 224 228 234 239 243 244 243 239 234 231 232 236 240 241 241 241 240 239 237 235 231 227 225 223 223 224 225 227 229 232 236 240 243 247 249 252 254 257 260 263 266 267 267 267 267 268 270 272 275 277 277 277 276 276 274 272
224 225 229 231 229 225 222 218 210 203 197 195 195 196 198 202 205 207 209 213 217 223 228 232 233 232 227 220 218 220 223 229 236 242 246 247 243 237 232 231 234 237 239 239 239 237 236 235 233 231 228 225 224 223 224 225 227 229 232 235 238 241 245 247 250 252 255 257 260 263 264 264 263 263 264 266 269 272 274 275 275 273 272 270 267 262
225 227 230 230 224 218 213 208 202 196 193 193 193 196 199 203 205 207 209 213 218 223 227 230 232 231 225 218 217 219 223 229 236 241 244 247 244 239 236 236 237 238 238 237 236 234 233 232 230 228 226 224 223 224 225 227 229 232 235 238 241 243 246 248 250 251 253 255 257 258 259 259 259 261 263 267 270 273 274 273 271 269 266 263 258 252
225 227 228 224 218 212 206 201 197 194 192 191 191 193 198 202 205 206 209 213 217 220 222 225 228 227 222 217 217 219 222 228 234 238 240 243 243 241 240 241 240 239 237 235 234 232 230 229 228 227 225 224 224 225 227 229 232 235 239 241 244 245 246 247 248 249 250 251 252 254 255 257 259 261 265 269 272 273 273 271 267 263 260 255 249 242
226 225 222 216 210 205 200 198 197 195 192 189 189 193 198 203 204 205 207 211 214 215 215 217 220 221 216 214 215 218 221 225 230 233 236 238 239 240 241 242 241 239 236 234 232 231 229 228 228 226 225 225 225 227 229 232 236 239 241 244 245 245 245 245 245 246 246 248 249 252 255 258 261 264 267 270 272 273 271 266 261 256 251 245 237 231
230 224 218 210 204 200 198 198 197 195 192 190 193 199 203 205 204 204 204 205 208 210 210 210 213 216 215 212 213 217 220 224 227 229 232 235 237 238 240 241 240 238 236 234 233 231 229 228 228 227 226 226 227 229 232 235 239 241 243 245 245 245 244 243 243 244 245 247 249 253 256 260 263 266 268 270 270 269 266 260 254 248 241 232 224 218
231 222 212 205 200 198 197 196 194 191 189 192 200 208 212 211 208 204 202 202 203 206 207 208 210 214 216 214 212 214 218 222 226 229 232 234 237 239 240 241 240 238 236 234 233 232 231 230 229 228 227 228 229 231 235 238 241 243 244 245 244 243 242 242 242 243 245 248 251 255 258 261 263 265 267 267 266 264 259 252 246 239 231 221 214 208
221 214 206 200 197 196 195 193 191 188 190 197 205 212 216 216 213 209 206 205 205 205 205 206 210 214 216 217 214 213 215 219 223 227 230 232 235 238 239 240 239 238 235 234 234 234 233 232 231 230 230 230 231 234 237 240 242 244 245 244 243 242 241 241 242 244 246 250 253 256 259 261 263 263 263 262 260 255 250 243 237 230 222 215 208 202
211 204 200 197 195 194 193 192 192 194 200 205 207 209 211 213 215 215 214 214 213 211 207 206 210 215 218 220 218 216 216 219 222 224 226 229 232 234 236 237 237 236 234 234 234 234 234 234 233 233 232 233 234 236 239 242 244 245 245 244 243 242 241 242 244 246 248 251 254 256 258 259 260 260 258 255 251 245 239 234 228 221 215 210 204 197
206 200 196 195 194 193 193 193 196 202 208 211 212 210 209 210 212 215 219 222 222 219 214 210 209 213 218 221 222 221 221 221 223 225 227 229 231 233 235 236 237 236 234 233 233 234 234 235 235 235 235 236 237 240 242 245 247 247 246 244 243 242 243 244 246 248 250 252 254 255 256 256 256 254 251 246 241 235 230 225 218 212 207 203 197 187
201 198 196 195 194 194 195 197 201 205 211 215 217 217 214 213 213 215 218 221 223 223 220 215 212 212 215 219 223 224 225 225 225 226 228 230 232 235 237 238 239 238 236 234 234 234 234 235 235 237 238 239 241 243 245 247 248 248 247 245 244 243 244 246 248 249 251 252 253 253 253 252 250 247 243 236 230 225 221 216 210 205 200 196 188 176
199 198 197 197 197 197 197 199 203 208 213 216 219 219 217 216 216 218 218 218 220 221 219 216 215 215 215 218 222 225 226 227 228 228 229 231 233 236 237 239 240 239 238 236 235 234 234 234 235 237 240 241 243 245 247 248 248 248 247 245 244 244 245 247 249 250 250 250 250 249 247 246 243 239 233 226 221 217 213 208 204 199 194 188 180 170
198 200 201 202 201 200 200 200 204 209 214 218 220 220 220 219 220 221 221 219 219 217 214 213 213 215 217 221 223 225 227 228 229 230 231 233 234 235 237 237 238 238 237 236 236 235 235 234 236 238 240 242 245 247 248 249 248 248 246 245 245 245 246 248 249 249 248 247 245 243 241 239 235 229 222 216 213 210 207 202 198 193 187 180 172 164
199 201 203 204 205 204 202 202 206 211 215 218 220 222 225 225 225 223 222 222 220 217 214 212 211 212 216 220 223 225 227 228 229 231 232 233 234 236 236 236 237 237 236 236 236 236 237 236 237 239 241 243 246 247 249 249 248 247 246 245 246 246 247 248 247 246 244 242 240 237 234 231 227 220 213 209 207 205 202 198 193 188 180 172 162 155
201 203 205 207 209 209 208 207 210 214 216 217 219 223 227 228 227 225 225 224 222 219 217 216 215 214 215 216 219 224 226 226 227 230 231 233 234 235 236 236 236 236 236 235 236 236 237 238 238 240 241 244 246 248 249 249 248 247 246 246 246 247 247 246 245 243 240 237 234 231 228 224 219 213 208 205 203 201 198 195 190 184 176 168 161 157
208 210 212 214 216 216 215 215 216 217 218 218 220 224 228 229 227 227 227 227 226 224 222 220 220 221 220 220 222 225 226 225 226 228 230 231 233 234 235 235 234 234 234 234 234 235 236 237 238 239 241 244 246 248 249 249 248 247 246 246 246 246 246 244 242 238 235 232 229 226 223 219 213 208 204 202 201 199 196 192 188 182 176 170 166 165
218 220 222 222 221 220 218 218 219 221 222 223 226 229 231 230 228 227 227 228 228 228 228 226 226 226 226 227 227 228 227 226 225 226 228 230 232 233 234 234 233 233 232 232 233 234 235 237 238 239 241 243 245 247 248 248 247 246 245 245 245 245 244 241 238 235 231 228 226 223 219 214 208 204 201 200 199 197 194 191 187 183 178 174 173 174
225 226 227 225 222 219 216 214 215 219 223 226 229 233 235 233 230 227 227 226 226 226 227 228 228 230 231 231 231 231 231 228 225 225 228 230 232 233 234 234 233 233 232 232 232 233 234 236 237 239 240 242 244 245 246 247 246 245 244 243 243 243 241 238 234 231 228 225 222 219 215 210 205 201 199 198 197 195 193 190 187 184 181 179 179 181
233 232 230 226 223 220 219 216 216 219 224 228 233 236 238 237 234 230 228 227 225 225 225 226 228 230 233 235 236 236 236 233 230 229 230 230 231 232 234 234 233 233 232 232 232 233 234 235 237 238 239 241 242 244 245 245 244 243 242 241 241 240 238 235 231 228 225 222 219 216 212 206 202 199 198 197 196 194 191 189 187 186 185 184 185 186
239 238 235 231 229 230 230 228 226 228 232 237 242 245 246 246 243 239 235 232 229 228 228 229 231 232 233 235 237 237 237 236 235 234 233 232 232 233 234 233 232 232 232 232 232 233 234 235 236 237 238 239 241 242 243 243 242 241 239 239 238 237 234 231 228 225 222 219 216 213 208 203 199 197 196 195 194 192 190 189 188 187 188 188 190 191
232 232 232 232 234 236 236 236 237 241 244 248 250 251 251 249 248 246 243 239 237 235 235 234 232 230 231 232 233 233 233 233 233 232 232 233 234 235 234 233 232 231 231 231 231 232 233 234 235 236 237 238 239 240 241 241 240 239 237 236 235 233 231 227 225 222 219 216 213 209 205 200 197 195 194 193 192 191 190 189 188 188 189 191 193 195
222 219 218 219 222 227 231 237 243 248 251 251 250 247 244 241 238 236 235 235 234 233 231 229 227 226 227 229 229 229 230 230 230 229 230 232 234 235 234 234 233 231 232 231 230 231 231 232 234 235 236 237 238 239 239 239 238 236 234 233 232 230 227 224 221 219 216 214 210 206 202 198 195 193 192 192 190 189 189 188 188 189 190 192 195 197
220 216 213 212 214 220 228 237 244 248 248 246 243 239 235 231 228 226 225 226 226 225 224 223 224 225 227 227 227 227 228 228 227 228 228 230 232 233 233 234 233 232 232 231 231 230 231 232 233 234 235 236 237 237 238 237 236 234 232 230 229 227 224 221 218 216 214 211 207 203 199 195 193 191 191 190 189 188 188 188 189 190 191 192 194 197
218 215 213 212 215 221 229 237 242 244 243 239 236 234 232 228 225 223 223 224 224 222 220 220 221 223 225 226 226 227 227 226 226 226 227 229 231 232 232 232 232 232 232 231 231 230 231 232 232 233 234 235 236 236 236 235 233 231 229 228 226 224 221 218 216 213 211 208 204 200 197 193 191 190 189 188 188 187 187 188 189 190 191 192 193 195
220 217 216 218 222 227 232 237 239 238 237 234 233 233 232 229 226 224 225 226 224 220 219 219 220 222 223 224 225 226 226 226 226 226 226 227 229 231 232 232 231 230 230 230 230 230 230 231 231 232 233 234 234 234 234 232 230 228 226 225 223 221 218 215 213 211 208 205 201 198 194 192 190 189 188 188 187 187 188 189 190 191 191 191 192 193
224 224 225 227 231 234 235 236 235 233 231 230 231 232 233 232 230 229 230 230 226 221 219 220 221 222 223 224 225 226 226 226 226 226 225 225 228 230 231 230 229 228 227 227 228 228 228 229 229 230 231 231 232 232 231 230 228 225 224 222 220 218 215 213 210 208 206 202 199 196 193 191 189 188 188 187 187 187 188 190 191 191 191 191 192 193
230 231 234 237 238 239 236 233 230 228 228 228 230 232 234 234 233 232 234 233 229 225 222 221 221 223 223 224 224 224 225 225 225 224 223 223 225 228 228 227 226 226 225 224 224 225 226 226 227 227 228 229 229 229 229 227 226 224 221 220 218 216 213 210 208 206 203 200 197 194 192 190 189 188 188 187 187 188 189 190 191 191 192 193 193 193
236 237 241 243 242 239 235 230 227 225 225 227 229 232 234 234 233 232 231 230 229 227 226 224 224 224 224 223 222 222 224 224 223 222 221 222 225 227 227 225 224 224 223 222 222 222 223 224 224 224 225 226 227 227 226 225 224 222 220 218 216 214 211 208 206 204 201 198 196 193 191 190 189 189 188 188 188 188 190 191 192 193 194 194 195 195
243 244 245 245 242 238 233 229 225 224 224 226 229 231 233 234 233 231 229 227 226 227 227 228 228 228 227 226 225 226 228 227 224 222 220 221 224 226 226 225 224 222 221 221 222 223 225 224 223 222 223 224 224 224 224 223 222 220 218 216 214 212 210 207 204 202 199 197 194 192 191 190 190 189 189 189 189 190 191 192 193 194 195 196 196 196
248 247 246 243 240 236 232 229 226 225 225 227 229 230 232 232 232 232 230 227 225 224 226 227 229 229 229 229 231 234 235 233 229 224 222 221 223 224 224 223 222 221 220 219 220 223 225 225 224 222 222 223 222 222 221 221 220 218 216 214 213 211 208 206 203 201 198 196 193 192 191 191 190 190 190 190 190 191 192 193 194 195 196 197 197 197
248 246 243 239 235 233 231 230 228 228 228 229 230 230 230 230 230 229 228 225 223 224 225 227 228 229 229 229 231 234 236 234 230 226 224 223 223 224 224 222 221 219 218 218 218 219 222 223 223 222 221 221 221 220 219 218 218 217 215 213 211 209 207 205 203 200 197 195 193 192 191 191 191 191 191 191 192 193 194 194 195 197 198 198 198 198
244 241 237 233 230 228 228 229 229 229 230 231 231 230 229 227 226 225 223 222 221 223 226 228 230 231 231 231 231 232 232 231 228 226 225 224 224 224 224 222 220 218 217 216 216 217 219 220 220 221 220 220 218 217 217 216 216 215 213 211 209 208 206 204 202 200 197 195 193 192 191 191 191 191 191 192 193 194 195 196 197 198 199 199 199 199
239 236 232 230 228 227 226 227 228 228 229 230 230 229 227 225 223 221 220 219 220 222 225 228 230 232 233 234 234 234 234 231 228 226 225 224 225 225 224 223 220 218 217 216 216 216 217 218 218 218 219 219 217 215 214 214 213 213 212 210 208 207 205 203 201 200 198 196 194 193 192 192 192 193 193 194 195 195 196 197 198 199 200 200 200 199
233 231 229 227 226 226 226 226 227 227 228 228 228 227 225 222 220 218 217 218 220 223 226 229 230 232 232 232 232 232 232 231 230 228 226 224 224 224 225 224 222 219 218 217 216 216 216 216 216 216 217 218 217 215 213 212 211 210 210 209 207 205 204 201 199 198 197 196 195 194 193 193 194 194 194 195 196 197 197 198 199 200 200 200 200 200
228 227 226 226 225 225 225 225 226 227 227 226 225 224 222 220 218 217 216 218 221 224 227 230 231 232 232 231 229 226 224 224 225 225 223 222 221 222 224 223 222 220 219 219 218 217 217 216 215 215 215 215 215 215 214 213 211 210 209 207 206 204 202 200 198 196 196 195 195 195 194 195 195 195 196 197 197 198 198 199 200 200 200 200 200 200
223 223 224 224 225 225 225 225 225 226 226 225 224 222 220 218 217 216 217 218 221 224 227 229 230 231 231 230 228 224 220 217 216 215 215 215 216 218 219 220 219 218 218 219 220 220 220 219 218 217 215 214 213 213 213 214 213 211 209 207 205 204 202 199 197 195 194 194 195 195 195 195 196 196 197 197 198 199 200 200 201 201 201 201 201 201
220 221 223 224 224 225 225 225 225 225 224 223 221 220 218 217 216 216 217 218 221 223 225 227 228 228 228 227 225 222 218 214 211 209 209 209 210 212 214 215 215 214 214 216 217 219 221 222 222 221 220 217 214 212 211 212 212 211 210 208 205 203 201 199 197 196 195 194 195 195 196 196 196 196 197 198 199 200 201 201 201 202 202 202 202 201
218 219 221 222 223 224 224 224 224 223 222 220 219 217 216 215 215 216 217 218 220 221 222 224 224 224 224 223 221 219 216 213 210 208 207 206 207 209 210 211 210 210 210 212 213 215 217 219 220 220 219 218 217 215 214 213 212 211 210 210 207 204 201 200 198 197 196 195 195 195 196 196 197 197 198 198 199 200 201 201 201 201 202 202 202 202
216 218 219 220 221 222 223 222 221 220 218 217 216 215 214 214 214 215 216 218 219 220 221 221 221 221 220 218 217 216 214 212 210 208 207 206 207 208 209 208 208 207 206 208 210 212 213 214 215 214 212 212 213 214 215 214 213 211 211 211 209 206 204 202 200 199 197 196 196 196 196 197 197 198 198 199 200 201 202 202 202 201 201 201 202 202
215 217 218 220 221 221 221 220 218 216 215 214 214 214 214 214 214 215 216 218 219 219 219 220 220 219 217 215 214 213 212 210 208 206 206 206 207 208 208 208 206 205 204 204 206 208 209 209 209 208 207 207 208 210 212 212 211 210 209 209 208 207 205 203 201 200 198 197 197 197 197 197 197 198 199 200 201 203 203 203 203 202 202 202 202 202
215 216 217 218 219 220 219 217 216 215 214 213 213 212 212 213 213 214 215 217 218 218 218 218 218 217 215 213 212 211 210 209 207 204 204 204 205 206 207 206 205 204 203 203 203 204 205 205 204 203 203 204 206 208 208 208 208 208 207 206 206 207 207 205 203 201 200 198 198 198 198 198 198 199 200 202 203 204 204 204 204 204 203 203 203 203
216 216 216 217 217 216 216 215 214 214 213 213 212 211 211 211 212 212 214 215 216 217 217 217 217 216 215 213 211 209 208 207 206 204 203 202 203 204 204 203 202 202 202 202 203 203 203 203 202 200 200 202 205 206 205 204 205 205 205 204 205 206 207 206 205 204 203 201 200 199 199 199 199 201 202 203 204 205 205 205 205 205 204 205 205 205
216 216 215 215 215 214 214 214 213 212 212 212 211 211 210 210 211 211 213 214 215 215 216 216 216 215 215 214 211 209 206 206 205 204 202 201 201 201 201 200 199 199 200 201 202 203 204 204 203 202 202 203 205 205 204 202 201 202 203 202 203 203 203 203 204 204 204 203 202 201 200 201 202 203 204 205 205 206 206 206 206 205 205 206 206 207
217 216 215 214 213 213 213 212 211 211 210 210 210 210 210 210 210 211 212 213 214 214 215 215 216 216 216 215 213 210 207 206 204 203 202 201 201 200 199 198 197 197 198 199 200 200 202 203 204 205 206 206 206 205 204 202 201 200 199 200 201 201 201 201 201 201 201 202 203 203 203 203 204 204 205 206 206 207 207 207 206 206 207 207 208 208
216 216 215 214 212 212 211 211 210 209 209 209 209 210 210 210 210 211 212 213 213 213 213 214 214 215 216 215 214 212 210 208 206 204 203 202 200 200 199 198 197 196 196 197 198 199 199 200 202 205 207 208 208 206 204 203 201 200 198 198 199 200 200 199 199 199 199 200 201 202 204 205 206 206 206 207 208 208 208 208 208 208 208 209 209 210
216 215 214 213 212 211 210 210 209 209 209 209 209 209 209 210 210 211 212 213 213 213 213 214 214 214 214 213 213 212 211 209 208 206 204 203 202 200 199 198 197 197 197 197 198 199 200 201 202 203 205 206 207 206 204 203 203 201 198 197 198 199 200 200 199 199 200 200 200 202 204 205 207 207 208 209 210 210 210 210 210 210 210 211 211 212
215 214 214 213 212 211 211 210 209 209 209 209 209 208 209 209 210 211 212 213 214 214 215 215 215 215 214 212 211 210 209 208 207 206 205 205 204 202 201 199 198 197 197 198 198 199 201 203 204 204 204 203 203 202 201 202 202 202 200 198 197 197 199 199 200 201 200 200 201 202 203 204 205 206 208 210 211 211 211 211 211 212 212 212 213 214
214 213 213 212 212 211 211 210 210 209 209 209 209 209 208 209 209 210 212 212 213 214 215 216 216 215 214 213 211 210 209 208 207 206 205 205 205 204 203 202 201 199 198 198 199 200 201 202 204 205 205 204 202 200 198 199 200 201 201 199 197 196 197 198 200 201 201 201 202 203 204 204 205 205 207 208 210 211 211 212 212 213 213 214 214 215